Location: Colonial Woods South
(40.1818°N, 76.8289°W)
Time: 03:50:57
(UTC+00:00)

Hubble Space Telescope - Pass Details

Date: 27 April 2026
Orbit: 473 x 476 km, 28.5° (Epoch: 11 May)

Event Time Altitude Azimuth Distance (km) Brightness Sun altitude
Rises 00:45:59 0° 233° (SW) 2,506 4.6 -9.4°
Reaches altitude 10° 00:49:06 10° 205° (SSW) 1,630 3.2 -9.9°
Maximum altitude 00:50:57 13° 175° (S) 1,440 2.6 -10.2°
Enters shadow 00:52:26 11° 151° (SSE) 1,567 2.6 -10.4°
